Weather History for Bandarabbass, Iran

Change the Weather History Date:

Wednesday, February 13, 2013

  Actual Average Record
Temperature  
Mean Temperature 70 °F -  
Max Temperature 77 °F 79 °F - ()
Min Temperature 64 °F 60 °F - ()
Cooling Degree Days 6    
Growing Degree Days 20 (Base 50)    
Moisture  
Dew Point 64 °F    
Average Humidity 81    
Maximum Humidity 94    
Minimum Humidity 57    
Precipitation  
Precipitation 0.00 in 0.06 in - ()
Sea Level Pressure  
Sea Level Pressure 29.94 in    
Wind  
Wind Speed 5 mph ()    
Max Wind Speed 14 mph    
Max Gust Speed -    
Visibility 2.7 miles    
Events      
T = Trace of Precipitation, MM = Missing Value Source: Averaged Metar Reports

Daily Weather History Graph

Daily Weather History Graph

Search for Another Location

Airport:

Trip Planner

Search our weather history database for the weather conditions in past years. The results will help you decide how hot, cold, wet, or windy it might be!

Date:

Astronomy

Feb. 13, 2013 Rise Set
Actual Time 6:22 AM IRST 5:34 PM IRST
Civil Twilight 5:58 AM IRST 5:58 PM IRST
Nautical Twilight 5:31 AM IRST 6:26 PM IRST
Astronomical Twilight 5:04 AM IRST 6:53 PM IRST
Moon 8:01 AM IRST (2/13) 8:46 PM IRST (2/13)
Length of Visible Light 11h 59m
Length of Day
11h 12m
Waxing Crescent, 11% of the Moon is Illuminated
Feb 13
Waxing Crescent
Feb 18
First Quarter
Feb 25
Full
Mar 5
Last Quarter
Mar 11
New

Hourly Weather History & Observations

Time (IRST) Temp. Dew Point Humidity Pressure Visibility Wind Dir Wind Speed Gust Speed Precip Events Conditions
12:05 AM 66.2 °F 62.6 °F 88% 29.95 in 2.5 mi Calm Calm - N/A   Scattered Clouds
12:20 AM 66.2 °F 62.6 °F 88% 29.95 in 2.5 mi Calm Calm - N/A   Scattered Clouds
12:30 AM 66.2 °F 62.6 °F 88% 29.95 in 2.5 mi Calm Calm - N/A   Scattered Clouds
1:00 AM 66.2 °F 62.6 °F 88% 29.95 in 2.5 mi North 4.6 mph - N/A   Scattered Clouds
1:20 AM 64.4 °F 62.6 °F 94% 29.95 in 2.2 mi North 6.9 mph - N/A   Scattered Clouds
1:30 AM 64.4 °F 62.6 °F 94% 29.95 in 2.2 mi North 6.9 mph - N/A   Scattered Clouds
2:20 AM 66.2 °F 62.6 °F 88% 29.95 in 1.9 mi North 4.6 mph - N/A   Scattered Clouds
2:30 AM 66.2 °F 62.6 °F 88% 29.95 in 1.9 mi North 4.6 mph - N/A   Scattered Clouds
3:20 AM 66.2 °F 62.6 °F 88% 29.92 in 1.6 mi North 6.9 mph - N/A   Scattered Clouds
3:30 AM 66 °F 63 °F 87% 29.95 in 2 mi North 6.7 mph - -   Mist
3:30 AM 66.2 °F 62.6 °F 88% 29.92 in 1.6 mi North 6.9 mph - N/A   Scattered Clouds
4:20 AM 66.2 °F 62.6 °F 88% 29.92 in 1.6 mi NE 4.6 mph - N/A   Scattered Clouds
4:30 AM 66.2 °F 62.6 °F 88% 29.92 in 1.6 mi NE 4.6 mph - N/A   Scattered Clouds
5:20 AM 66.2 °F 62.6 °F 88% 29.95 in 1.2 mi North 6.9 mph - N/A   Scattered Clouds
6:00 AM 66.2 °F 62.6 °F 88% 29.95 in 1.2 mi NNE 6.9 mph - N/A   Mostly Cloudy
6:20 AM 64.4 °F 62.6 °F 94% 29.95 in 0.9 mi North 4.6 mph - N/A   Scattered Clouds
6:30 AM 64.4 °F 62.6 °F 94% 29.95 in 0.9 mi North 4.6 mph - N/A   Scattered Clouds
7:00 AM 64.4 °F 62.6 °F 94% 29.98 in 0.9 mi North 4.6 mph - N/A   Scattered Clouds
7:20 AM 66.2 °F 64.4 °F 94% 29.98 in 1.2 mi North 4.6 mph - N/A   Scattered Clouds
7:30 AM 66.2 °F 64.4 °F 94% 29.98 in 1.2 mi North 4.6 mph - N/A   Scattered Clouds
7:58 AM 69.8 °F 64.4 °F 83% 29.98 in 1.9 mi NNE 6.9 mph - N/A   Partly Cloudy
8:20 AM 71.6 °F 64.4 °F 78% 30.01 in 2.5 mi NE 6.9 mph - N/A   Partly Cloudy
9:00 AM 71.6 °F 64.4 °F 78% 30.01 in 2.5 mi ENE 4.6 mph - N/A   Haze
9:20 AM 73.4 °F 68.0 °F 83% 30.01 in 2.5 mi ENE 6.9 mph - N/A   Scattered Clouds
9:30 AM 73 °F 68 °F 78% 30.02 in 2 mi ENE 6.7 mph - -   Mist
9:30 AM 73.4 °F 68.0 °F 83% 30.01 in 2.5 mi ENE 6.9 mph - N/A   Scattered Clouds
10:00 AM 73.4 °F 64.4 °F 73% 30.01 in 2.5 mi East 4.6 mph - N/A   Haze
10:20 AM 73.4 °F 64.4 °F 73% 30.01 in 3.7 mi SE 4.6 mph - N/A   Scattered Clouds
10:30 AM 73.4 °F 64.4 °F 73% 30.01 in 3.7 mi SE 4.6 mph - N/A   Scattered Clouds
11:00 AM 75.2 °F 64.4 °F 69% 30.01 in 3.7 mi SSE 6.9 mph - N/A   Mostly Cloudy
11:20 AM 75.2 °F 62.6 °F 65% 29.98 in 3.7 mi East 6.9 mph - N/A   Mostly Cloudy
11:30 AM 75.2 °F 62.6 °F 65% 29.98 in 3.7 mi East 6.9 mph - N/A   Mostly Cloudy
12:00 PM 75.2 °F 62.6 °F 65% 29.98 in 3.7 mi SSE 9.2 mph - N/A   Scattered Clouds
12:20 PM 77.0 °F 60.8 °F 57% 29.98 in 3.7 mi South 9.2 mph - N/A   Scattered Clouds
12:30 PM 77.0 °F 60.8 °F 57% 29.98 in 3.7 mi South 9.2 mph - N/A   Scattered Clouds
1:00 PM 75.2 °F 64.4 °F 69% 29.95 in 3.7 mi South 9.2 mph - N/A   Scattered Clouds
1:20 PM 75.2 °F 64.4 °F 69% 29.95 in 3.7 mi SSE 6.9 mph - N/A   Scattered Clouds
1:30 PM 75.2 °F 64.4 °F 69% 29.95 in 3.7 mi SSE 6.9 mph - N/A   Scattered Clouds
2:00 PM 75.2 °F 64.4 °F 69% 29.95 in 3.7 mi South 6.9 mph - N/A   Scattered Clouds
2:30 PM 75.2 °F 64.4 °F 69% 29.92 in 3.7 mi South 9.2 mph - N/A   Scattered Clouds
3:00 PM 75.2 °F 64.4 °F 69% 29.92 in 3.7 mi South 9.2 mph - N/A   Scattered Clouds
3:20 PM 75.2 °F 66.2 °F 73% 29.92 in 3.7 mi South 13.8 mph - N/A   Partly Cloudy
3:30 PM 75 °F 65 °F 64% 29.93 in 4 mi South 13.4 mph - -   Haze
4:00 PM 75.2 °F 66.2 °F 73% 29.89 in 3.7 mi South 11.5 mph - N/A   Partly Cloudy
4:20 PM 75.2 °F 66.2 °F 73% 29.89 in 3.7 mi SSE 9.2 mph - N/A   Partly Cloudy
4:30 PM 75.2 °F 66.2 °F 73% 29.89 in 3.7 mi SSE 9.2 mph - N/A   Partly Cloudy
5:00 PM 73.4 °F 66.2 °F 78% 29.89 in 3.7 mi South 11.5 mph - N/A   Partly Cloudy
5:20 PM 73.4 °F 66.2 °F 78% 29.89 in 3.1 mi SSE 6.9 mph - N/A   Haze
5:30 PM 73.4 °F 66.2 °F 78% 29.89 in 3.1 mi SSE 6.9 mph - N/A   Haze
6:00 PM 71.6 °F 66.2 °F 83% 29.89 in 3.1 mi East 6.9 mph - N/A   Partly Cloudy
6:20 PM 71.6 °F 66.2 °F 83% 29.89 in 3.1 mi ESE 6.9 mph - N/A   Partly Cloudy
6:30 PM 71.6 °F 66.2 °F 83% 29.89 in 3.1 mi ESE 6.9 mph - N/A   Partly Cloudy
7:00 PM 71.6 °F 66.2 °F 83% 29.92 in 3.1 mi East 6.9 mph - N/A   Mist
7:20 PM 71.6 °F 64.4 °F 78% 29.92 in 3.1 mi ESE 4.6 mph - N/A   Mist
7:30 PM 71.6 °F 64.4 °F 78% 29.92 in 3.1 mi ESE 4.6 mph - N/A   Mist
8:00 PM 69.8 °F 64.4 °F 83% 29.92 in 3.1 mi ESE 6.9 mph - N/A   Mist
8:20 PM 69.8 °F 64.4 °F 83% 29.92 in 3.1 mi NNE 9.2 mph - N/A   Mist
8:30 PM 69.8 °F 64.4 °F 83% 29.92 in 3.1 mi NNE 9.2 mph - N/A   Mist
9:00 PM 68.0 °F 64.4 °F 88% 29.92 in 3.1 mi NNE 6.9 mph - N/A   Mist
9:20 PM 68.0 °F 64.4 °F 88% 29.92 in 3.1 mi NNE 4.6 mph - N/A   Clear
9:30 PM 68 °F 64 °F 82% 29.94 in 3 mi NNE 4.5 mph - -   Mist
9:30 PM 68.0 °F 64.4 °F 88% 29.92 in 3.1 mi NNE 4.6 mph - N/A   Clear
10:00 PM 68.0 °F 64.4 °F 88% 29.92 in 3.1 mi North 4.6 mph - N/A   Clear
10:20 PM 66.2 °F 62.6 °F 88% 29.92 in 3.1 mi North 6.9 mph - N/A   Clear
10:30 PM 66.2 °F 62.6 °F 88% 29.92 in 3.1 mi North 6.9 mph - N/A   Clear
11:00 PM 68.0 °F 64.4 °F 88% 29.92 in 2.5 mi North 4.6 mph - N/A   Mist
11:20 PM 66.2 °F 64.4 °F 94% 29.92 in 1.9 mi North 4.6 mph - N/A   Mist
11:30 PM 66.2 °F 64.4 °F 94% 29.92 in 1.9 mi North 4.6 mph - N/A   Mist
11:50 PM 66.2 °F 64.4 °F 94% 29.92 in 2.5 mi North 6.9 mph - N/A   Mist